Temp
-3 -3 -3 -3 -3 -2 -2 -2 -2 -2 -2 -2 -2 -2 -2 -2 -2 -2 -3 -3 -4 -4 -4 -5 -6 -6 -5 -4 -4 -6 -7 -7 -5 -5 -4 -4 -3 -4 -3 -3 -3 -4 -4 -4 -4
-3 -3 -2 -3 -3 -3 -2 -2 -2 -2 -2 -2 -2 -2 -2 -2 -2 -2 -2 -3 -4 -4 -4 -5 -5 -6 -7 -5 -5 -7 -5 -6 -6 -4 -4 -4 -4 -4 -3 -3 -4 -4 -4 -4 -4
-3 -2 -2 -2 -3 -3 -3 -2 -2 -2 -2 -2 -2 -2 -2 -2 -2 -2 -2 -3 -3 -4 -4 -5 -5 -5 -6 -6 -6 -7 -7 -6 -6 -4 -4 -4 -4 -4 -3 -4 -3 -4 -3 -4 -4
-2 -3 -2 -2 -2 -3 -3 -3 -2 -2 -2 -2 -2 -2 -2 -2 -2 -2 -2 -3 -3 -4 -4 -5 -3 -5 -6 -6 -6 -6 -6 -6 -6 -5 -5 -4 -3 -4 -3 -3 -3 -3 -4 -4 -4
-3 -3 -3 -3 -2 -2 -3 -3 -2 -2 -2 -2 -2 -2 -2 -2 -2 -2 -2 -2 -3 -3 -4 -4 -4 -4 -4 -4 -5 -5 -5 -6 -6 -5 -5 -4 -4 -4 -4 -4 -4 -4 -4 -4 -3
-3 -3 -3 -3 -2 -2 -2 -3 -2 -2 -2 -2 -2 -2 -2 -2 -2 -2 -2 -2 -3 -3 -4 -5 -4 -3 -5 -4 -5 -6 -6 -6 -5 -4 -3 -4 -4 -4 -3 -4 -4 -4 -4 -3 -4
-3 -3 -3 -3 -3 -3 -3 -3 -3 -2 -2 -2 -2 -2 -2 -2 -2 -2 -2 -3 -2 -3 -3 -3 -3 -4 -4 -5 -5 -7 -6 -7 -5 -5 -4 -3 -3 -4 -4 -4 -3 -3 -5 -4 -4
-3 -3 -3 -3 -3 -3 -3 -3 -3 -3 -3 -2 -2 -3 -3 -2 -3 -3 -2 -3 -3 -2 -3 -3 -4 -4 -4 -6 -4 -7 -5 -5 -6 -5 -4 -4 -4 -4 -5 -5 -5 -3 -4 -4 -4
-3 -3 -3 -3 -3 -3 -3 -3 -3 -3 -3 -3 -2 -3 -3 -3 -3 -3 -3 -3 -3 -3 -3 -3 -5 -5 -5 -6 -7 -6 -5 -5 -5 -4 -5 -4 -5 -4 -4 -5 -5 -5 -5 -5 -6
-4 -4 -4 -4 -3 -3 -3 -3 -3 -3 -3 -3 -3 -3 -4 -4 -4 -4 -4 -4 -4 -3 -3 -3 -4 -5 -6 -7 -6 -5 -5 -5 -4 -4 -5 -5 -5 -5 -5 -6 -6 -6 -6 -6 -5
-5 -5 -4 -4 -4 -4 -4 -4 -4 -4 -3 -3 -3 -3 -3 -4 -4 -4 -4 -4 -4 -4 -3 -4 -3 -4 -5 -6 -6 -6 -5 -4 -4 -6 -5 -5 -5 -6 -6 -6 -7 -8 -5 -6 -5
-5 -5 -5 -5 -5 -5 -4 -4 -4 -4 -4 -4 -3 -4 -3 -4 -3 -4 -4 -4 -4 -4 -4 -4 -4 -4 -5 -7 -7 -6 -5 -4 -4 -5 -6 -6 -5 -5 -6 -6 -6 -6 -6 -6 -5
-5 -5 -5 -5 -5 -5 -5 -5 -5 -4 -4 -4 -3 -4 -4 -4 -4 -4 -4 -5 -5 -5 -4 -4 -5 -8 -6 -6 -6 -7 -7 -5 -6 -6 -5 -5 -5 -4 -6 -4 -6 -7 -5 -6 -6
-5 -5 -5 -5 -5 -5 -5 -5 -5 -5 -4 -4 -4 -4 -3 -4 -4 -4 -4 -5 -5 -5 -5 -5 -7 -8 -7 -6 -7 -7 -6 -6 -7 -6 -6 -6 -6 -6 -6 -3 -5 -5 -7 -6 -8
-6 -6 -5 -5 -5 -5 -6 -5 -5 -5 -5 -4 -5 -4 -4 -4 -5 -5 -6 -6 -5 -5 -5 -6 -7 -7 -6 -6 -5 -6 -7 -6 -7 -7 -6 -7 -6 -7 -6 -5 -6 -5 -6 -6 -6
-6 -6 -6 -6 -6 -6 -6 -6 -5 -5 -6 -5 -5 -5 -5 -5 -5 -5 -5 -6 -6 -6 -6 -6 -8 -7 -6 -6 -7 -7 -7 -7 -6 -6 -5 -6 -6 -6 -5 -4 -4 -6 -5 -6 -7
-6 -6 -6 -6 -6 -6 -7 -6 -6 -6 -6 -6 -6 -5 -5 -5 -5 -5 -6 -5 -5 -6 -6 -6 -7 -8 -7 -7 -8 -6 -6 -7 -6 -6 -6 -5 -4 -5 -5 -4 -4 -4 -4 -6 -6
-6 -6 -6 -6 -6 -7 -7 -7 -6 -7 -8 -9 -7 -6 -6 -6 -6 -6 -6 -6 -6 -6 -7 -7 -6 -7 -7 -7 -7 -7 -6 -7 -5 -6 -6 -6 -5 -6 -4 -4 -4 -5 -6 -6 -6
-6 -6 -6 -6 -6 -6 -7 -7 -7 -8 -9 -9 -9 -8 -6 -6 -6 -7 -6 -6 -7 -7 -7 -7 -6 -7 -8 -8 -8 -8 -7 -7 -7 -7 -7 -6 -6 -6 -5 -4 -4 -5 -5 -5 -6
-6 -6 -6 -6 -6 -6 -6 -7 -8 -7 -8 -8 -9 -9 -8 -7 -7 -7 -7 -7 -7 -7 -7 -7 -7 -8 -8 -8 -7 -7 -8 -7 -7 -7 -7 -6 -6 -6 -6 -5 -5 -5 -5 -6 -5
-6 -6 -7 -6 -6 -6 -7 -7 -8 -8 -7 -8 -9 -8 -9 -9 -9 -8 -8 -8 -8 -8 -7 -7 -7 -7 -9 -7 -8 -8 -8 -7 -8 -8 -7 -7 -6 -6 -6 -5 -5 -5 -6 -6 -6
-6 -6 -7 -7 -7 -7 -7 -8 -8 -8 -8 -7 -8 -9 -8 -9 -9 -9 -8 -8 -8 -8 -8 -7 -7 -7 -7 -8 -8 -7 -7 -8 -8 -8 -7 -6 -5 -6 -6 -6 -6 -5 -5 -6 -6
-7 -7 -7 -7 -7 -7 -8 -8 -8 -8 -8 -7 -7 -8 -9 -8 -8 -8 -9 -8 -8 -8 -8 -8 -8 -7 -7 -8 -8 -7 -7 -7 -7 -8 -8 -7 -6 -6 -6 -6 -6 -5 -6 -6 -7
-7 -7 -7 -7 -7 -7 -7 -7 -7 -8 -9 -8 -8 -7 -8 -8 -8 -8 -8 -8 -8 -8 -8 -8 -9 -9 -8 -7 -7 -7 -7 -7 -7 -7 -7 -8 -7 -7 -7 -6 -7 -5 -4 -5 -6
-7 -7 -7 -7 -7 -7 -7 -8 -8 -8 -8 -8 -8 -8 -8 -8 -8 -8 -8 -9 -8 -8 -8 -8 -8 -8 -8 -8 -7 -7 -7 -7 -7 -7 -8 -7 -6 -6 -7 -7 -7 -6 -6 -7 -6
-7 -7 -7 -7 -7 -7 -8 -8 -7 -8 -8 -7 -8 -8 -8 -8 -8 -8 -9 -9 -9 -9 -9 -9 -9 -8 -8 -8 -8 -7 -7 -7 -7 -7 -8 -7 -7 -6 -7 -6 -7 -6 -5 -6 -7
-8 -8 -8 -8 -8 -8 -8 -8 -8 -8 -8 -8 -7 -7 -8 -7 -7 -8 -8 -9 -9 -8 -8 -9 -8 -8 -8 -8 -8 -7 -7 -7 -7 -7 -7 -8 -7 -7 -6 -5 -6 -6 -6 -6 -7
Height
5912 5913 5914 5915 5915 5916 5917 5917 5918 5918 5918 5919 5919 5919 5919 5919 5919 5918 5917 5918 5917 5918 5920 5919 5917 5918 5898 5903 5919 5918 5918 5918 5918 5918 5921 5920 5920 5920 5920 5924 5924 5923 5924 5927 5927
5912 5912 5913 5914 5915 5915 5916 5917 5918 5918 5918 5919 5919 5920 5920 5921 5921 5920 5919 5918 5918 5919 5922 5919 5916 5920 5908 5907 5915 5920 5921 5920 5921 5918 5919 5921 5921 5921 5923 5923 5925 5925 5923 5926 5927
5910 5911 5912 5913 5914 5914 5915 5915 5917 5918 5918 5919 5919 5920 5921 5921 5922 5921 5920 5919 5919 5920 5922 5918 5919 5918 5920 5911 5922 5923 5924 5923 5921 5918 5919 5919 5919 5918 5920 5921 5926 5925 5922 5924 5926
5907 5908 5910 5910 5912 5913 5913 5913 5915 5916 5917 5918 5918 5919 5920 5922 5924 5922 5921 5920 5920 5921 5922 5916 5923 5919 5922 5924 5924 5921 5922 5923 5921 5920 5921 5920 5919 5918 5921 5923 5923 5928 5925 5925 5925
5905 5906 5907 5908 5908 5910 5910 5911 5912 5913 5915 5915 5917 5918 5920 5922 5923 5922 5921 5921 5920 5920 5921 5919 5921 5914 5918 5921 5925 5922 5923 5921 5920 5920 5921 5921 5920 5920 5923 5925 5925 5923 5926 5925 5927
5900 5902 5903 5904 5904 5905 5907 5908 5909 5910 5911 5912 5914 5915 5918 5920 5920 5921 5921 5920 5920 5919 5919 5921 5922 5918 5919 5917 5921 5924 5923 5920 5922 5923 5923 5922 5923 5923 5924 5925 5923 5922 5921 5925 5927
5895 5897 5898 5899 5900 5901 5902 5904 5905 5905 5907 5908 5909 5912 5914 5916 5917 5919 5919 5919 5919 5918 5919 5919 5914 5908 5921 5920 5921 5922 5924 5922 5924 5925 5926 5923 5925 5925 5923 5922 5921 5920 5919 5922 5922
5889 5890 5892 5893 5894 5895 5896 5898 5899 5900 5901 5902 5904 5907 5909 5914 5914 5917 5917 5917 5918 5917 5921 5921 5919 5918 5924 5920 5922 5919 5923 5925 5923 5923 5924 5926 5924 5924 5922 5921 5920 5919 5917 5918 5919
5882 5883 5885 5886 5887 5888 5890 5891 5892 5893 5895 5896 5898 5903 5904 5909 5911 5911 5914 5914 5914 5916 5919 5919 5920 5919 5921 5920 5921 5922 5925 5925 5923 5921 5924 5925 5923 5923 5922 5919 5917 5919 5919 5918 5915
5875 5876 5877 5879 5880 5881 5882 5884 5885 5887 5889 5891 5894 5897 5900 5903 5902 5906 5909 5910 5911 5913 5916 5917 5919 5920 5918 5920 5920 5922 5925 5926 5924 5923 5920 5921 5922 5922 5921 5919 5915 5917 5913 5917 5916
5868 5869 5871 5872 5874 5875 5877 5879 5881 5883 5884 5887 5888 5889 5892 5896 5898 5903 5904 5906 5907 5909 5911 5915 5916 5917 5917 5920 5919 5918 5923 5920 5923 5921 5922 5920 5921 5921 5918 5917 5915 5914 5912 5914 5912
5863 5864 5865 5866 5868 5869 5871 5873 5876 5878 5879 5880 5882 5886 5887 5892 5894 5897 5899 5902 5903 5906 5907 5908 5914 5914 5914 5917 5917 5917 5918 5920 5921 5917 5915 5917 5918 5922 5919 5917 5915 5915 5908 5909 5911
5857 5859 5859 5861 5862 5864 5866 5868 5869 5871 5874 5876 5878 5881 5882 5887 5890 5892 5894 5898 5900 5902 5904 5907 5908 5910 5911 5918 5918 5917 5916 5916 5916 5916 5915 5910 5899 5908 5909 5913 5908 5911 5912 5909 5912
5851 5853 5854 5856 5859 5859 5860 5862 5864 5866 5869 5873 5875 5877 5878 5882 5883 5887 5890 5894 5895 5897 5900 5903 5905 5908 5910 5914 5917 5914 5916 5915 5917 5916 5912 5910 5907 5906 5903 5910 5909 5902 5907 5906 5908
5846 5847 5848 5850 5852 5854 5856 5857 5859 5862 5865 5866 5869 5871 5874 5878 5880 5881 5885 5887 5890 5894 5897 5902 5901 5905 5912 5914 5913 5913 5916 5916 5914 5914 5913 5912 5911 5902 5903 5903 5902 5905 5904 5905 5906
5841 5842 5843 5844 5846 5848 5849 5852 5855 5859 5860 5860 5867 5868 5869 5873 5874 5877 5879 5882 5887 5888 5890 5894 5900 5901 5907 5909 5909 5907 5912 5912 5910 5910 5912 5911 5910 5905 5904 5905 5903 5897 5896 5901 5903
5837 5837 5838 5839 5842 5842 5845 5847 5851 5855 5855 5857 5862 5862 5865 5868 5869 5872 5876 5878 5880 5883 5885 5890 5893 5899 5905 5898 5904 5908 5909 5907 5906 5907 5908 5906 5906 5905 5905 5904 5897 5893 5896 5895 5901
5833 5833 5834 5835 5836 5838 5840 5844 5849 5852 5857 5856 5857 5859 5861 5863 5865 5867 5869 5873 5876 5879 5883 5886 5891 5895 5901 5903 5905 5899 5897 5905 5900 5903 5903 5901 5900 5902 5903 5902 5897 5892 5893 5893 5900
5829 5829 5830 5831 5832 5833 5837 5841 5845 5847 5846 5854 5856 5854 5858 5859 5863 5864 5866 5869 5873 5876 5878 5882 5887 5895 5898 5901 5901 5901 5899 5906 5899 5902 5901 5900 5899 5894 5891 5896 5893 5891 5897 5895 5896
5826 5826 5827 5827 5828 5830 5833 5839 5840 5838 5841 5846 5852 5855 5855 5858 5860 5861 5864 5867 5869 5872 5875 5880 5883 5885 5881 5892 5897 5895 5899 5899 5898 5900 5900 5898 5899 5898 5892 5893 5884 5887 5892 5892 5898
5822 5823 5824 5823 5825 5827 5830 5835 5835 5837 5839 5842 5846 5847 5850 5856 5857 5859 5861 5864 5866 5869 5871 5876 5879 5881 5883 5884 5889 5893 5894 5897 5897 5898 5895 5896 5897 5901 5900 5901 5891 5884 5886 5895 5898
5817 5819 5819 5820 5822 5823 5826 5829 5831 5832 5835 5838 5841 5845 5847 5850 5852 5856 5858 5859 5863 5866 5866 5871 5874 5876 5879 5883 5890 5893 5890 5893 5895 5895 5890 5893 5894 5898 5899 5897 5895 5896 5896 5893 5897
5811 5813 5814 5815 5817 5818 5820 5823 5824 5827 5827 5831 5834 5839 5843 5845 5847 5850 5855 5859 5861 5862 5863 5867 5867 5871 5876 5880 5884 5888 5889 5891 5892 5891 5889 5889 5891 5896 5892 5893 5898 5895 5891 5889 5892
5805 5805 5807 5808 5810 5812 5814 5816 5817 5819 5822 5826 5828 5831 5834 5838 5840 5845 5851 5853 5855 5858 5861 5863 5864 5866 5871 5876 5880 5885 5889 5890 5889 5889 5886 5885 5888 5889 5883 5885 5884 5888 5887 5888 5893
5797 5795 5800 5804 5803 5805 5806 5810 5811 5813 5814 5816 5820 5823 5828 5832 5836 5841 5844 5843 5849 5852 5855 5857 5858 5862 5865 5868 5874 5878 5881 5885 5886 5885 5882 5883 5885 5887 5885 5882 5881 5879 5884 5891 5895
5789 5789 5793 5791 5794 5797 5798 5802 5802 5804 5805 5807 5811 5814 5819 5823 5822 5829 5832 5833 5838 5843 5847 5851 5852 5856 5858 5862 5865 5868 5873 5878 5881 5882 5878 5879 5878 5880 5885 5886 5882 5880 5886 5889 5888
5778 5778 5780 5782 5783 5786 5790 5790 5791 5793 5797 5799 5799 5803 5808 5808 5815 5821 5827 5828 5831 5832 5837 5841 5845 5847 5850 5858 5861 5861 5867 5871 5874 5877 5876 5875 5876 5877 5877 5879 5878 5882 5883 5890 5891
Wind_Speed
5 5 5 4 5 5 6 6 5 4 6 6 7 8 9 9 10 11 9 8 9 8 13 10 9 12 3 17 9 22 21 10 7 14 10 8 6 4 4 6 6 3 2 1 3
7 6 6 5 5 5 4 4 2 1 1 2 3 4 6 7 7 9 8 7 8 6 7 5 1 5 10 26 22 21 17 12 4 6 10 7 4 4 4 3 4 1 3 2 2
8 8 8 8 7 7 6 6 5 5 4 3 3 3 3 4 4 6 6 6 6 6 8 3 6 10 15 25 21 21 9 3 6 7 7 6 4 2 2 4 4 2 5 4 3
11 11 11 11 10 9 9 9 8 8 8 7 6 6 4 3 2 3 3 3 4 4 4 3 4 3 10 8 9 17 12 8 6 3 6 6 4 5 5 3 4 4 5 3 3
14 14 14 14 14 13 12 12 12 12 11 11 10 11 9 6 4 4 2 2 0 3 6 3 4 3 9 7 9 9 9 10 5 6 3 6 8 8 6 5 5 8 8 9 6
18 18 18 18 18 17 16 16 17 17 17 16 16 14 12 11 10 7 5 5 4 2 3 10 6 1 3 16 12 8 2 4 8 6 3 5 8 11 9 8 11 12 11 11 10
21 21 21 21 21 21 22 20 21 21 22 21 21 19 16 15 14 12 10 8 7 7 6 2 3 11 4 6 6 8 6 6 5 6 10 4 1 6 10 10 10 12 15 14 16
24 24 24 24 25 25 25 25 24 24 24 24 24 23 22 15 16 13 13 12 11 13 7 7 5 7 2 6 3 4 10 12 14 5 10 11 9 6 14 12 15 13 11 15 14
26 26 26 26 27 27 27 27 26 24 24 24 25 22 25 17 18 18 15 16 16 14 10 11 7 6 6 6 7 3 5 3 8 6 1 8 11 11 16 15 11 9 14 8 17
24 23 22 22 23 23 24 25 25 25 25 23 18 18 20 21 24 19 18 18 17 16 14 15 11 13 6 10 10 6 5 4 5 3 8 7 7 13 18 14 18 20 17 10 10
22 22 21 20 20 21 21 21 22 22 21 22 23 24 21 19 21 18 20 19 20 19 16 15 16 12 13 10 12 8 8 7 5 10 7 8 7 20 15 13 18 13 22 15 5
20 21 22 22 22 22 23 22 19 20 20 20 23 19 22 17 20 18 21 21 21 19 18 17 11 14 11 9 16 17 14 11 7 11 12 11 8 12 11 12 13 16 23 15 7
21 19 19 19 20 21 23 22 23 21 19 20 20 20 22 19 19 21 23 21 21 21 21 17 16 13 16 16 14 21 18 16 13 19 19 18 21 14 10 12 11 16 16 5 11
23 23 23 21 21 20 20 21 23 23 20 18 18 19 22 18 22 21 22 21 24 24 23 19 15 15 17 19 13 6 15 17 12 21 20 19 25 21 23 13 15 8 8 8 15
19 20 22 23 24 21 20 20 21 23 21 24 19 19 18 18 18 21 18 22 24 21 23 15 20 21 6 8 16 11 11 20 20 22 18 18 20 29 16 8 5 7 6 4 13
15 17 19 19 20 22 22 21 21 22 20 24 14 17 19 16 21 21 22 22 20 24 27 22 20 15 14 18 20 21 13 20 28 17 16 20 8 21 12 8 12 11 9 5 12
12 13 15 17 16 19 20 21 21 17 21 21 13 18 17 17 21 19 18 20 23 26 28 24 26 24 24 13 21 23 17 15 22 19 16 20 19 15 12 7 10 11 7 9 10
10 11 13 14 16 18 19 19 14 16 4 5 16 13 14 16 18 18 19 18 21 25 23 24 24 27 23 22 25 30 12 14 17 18 20 22 23 21 6 11 4 11 3 3 8
11 12 11 12 14 17 19 15 17 22 20 12 18 23 12 16 16 19 20 16 17 21 25 24 23 15 16 24 25 31 24 21 24 18 19 21 25 18 8 5 9 10 3 2 9
13 12 12 12 14 15 15 15 26 31 29 25 23 22 15 9 15 19 21 16 16 20 22 21 21 25 34 36 30 25 21 21 26 23 22 19 19 18 5 12 19 20 5 4 4
14 14 13 14 14 13 11 17 28 32 29 34 33 20 20 15 20 17 19 18 17 16 24 22 27 27 17 20 25 15 33 22 21 16 19 17 23 17 22 9 12 16 9 8 1
15 11 15 15 16 15 16 21 28 31 31 30 32 28 26 24 20 25 20 16 9 12 19 25 28 31 25 19 9 21 22 17 29 15 20 17 25 20 16 15 16 18 16 10 7
18 17 16 16 16 17 20 23 27 30 31 23 26 31 29 28 29 23 27 18 16 22 20 16 25 29 28 17 17 20 20 22 26 24 29 29 22 15 17 15 18 15 26 15 30
23 24 21 21 19 20 23 25 28 29 31 26 26 29 32 36 35 31 25 27 30 30 27 26 27 28 30 25 22 16 20 22 24 16 25 28 25 23 29 21 30 19 16 9 6
27 30 25 23 26 26 26 25 28 30 32 31 31 31 33 34 34 35 29 28 31 32 33 37 37 36 31 25 30 27 19 21 25 31 24 21 27 29 29 17 16 21 26 17 11
28 28 25 30 31 31 31 29 31 32 35 33 35 34 34 34 39 42 43 35 35 35 36 38 40 34 38 35 34 34 27 23 9 23 18 25 24 29 21 30 22 25 16 11 11
32 34 32 32 34 33 34 37 38 37 35 35 38 39 39 43 41 41 48 42 35 42 43 43 41 40 41 41 32 40 34 28 22 17 18 20 20 25 29 9 12 6 6 12 15
Wind_Direction
197 182 177 160 151 145 142 129 115 95 84 73 59 55 53 53 54 61 66 63 62 73 84 77 106 109 267 132 84 79 76 85 71 80 81 80 78 93 61 82 92 193 335 176 253
213 210 204 200 196 195 182 176 184 178 75 41 33 41 35 48 54 61 54 66 65 70 73 88 78 153 303 73 81 75 90 62 117 60 102 103 90 95 81 69 79 125 254 246 285
229 230 237 235 233 232 231 228 234 243 259 270 296 326 357 24 43 54 60 49 70 64 80 353 346 20 45 82 87 78 80 333 8 34 44 51 358 8 59 30 80 147 268 267 260
244 242 241 245 242 243 248 252 252 252 257 262 266 272 285 316 12 357 12 53 58 74 95 17 120 62 53 88 86 75 60 326 336 18 18 350 318 324 352 19 320 155 258 252 230
252 250 247 248 248 247 253 259 263 263 261 262 261 264 267 266 270 288 317 308 324 81 96 149 106 123 22 30 36 52 33 4 347 311 316 291 298 302 315 334 302 270 223 250 251
256 255 255 253 255 257 256 259 264 267 265 261 260 259 260 256 257 251 257 247 253 255 137 90 92 81 249 334 97 51 282 210 318 0 343 272 283 307 324 341 306 275 272 243 225
259 258 256 255 255 257 259 259 262 264 263 261 258 256 252 246 246 244 248 245 249 243 231 229 296 150 234 279 180 163 289 327 316 326 310 276 3 299 310 330 303 285 265 256 244
260 259 259 258 257 257 259 261 261 259 257 257 255 253 249 250 248 242 240 242 236 246 247 246 237 275 173 263 204 206 230 327 337 273 323 321 324 339 319 306 310 286 272 275 278
262 261 259 258 257 256 255 256 256 254 255 252 253 253 250 246 246 235 232 238 239 240 231 241 213 255 211 282 250 228 358 322 352 280 261 254 308 320 321 316 302 301 300 255 267
262 260 257 255 253 253 251 249 250 249 250 251 251 245 245 227 231 228 227 234 241 240 227 232 200 213 236 212 242 272 289 273 340 100 308 325 307 270 274 315 271 289 267 259 248
258 257 254 253 253 250 250 249 247 248 250 247 238 233 234 227 235 236 230 229 237 242 248 222 224 216 218 227 274 270 267 256 268 314 303 315 297 318 283 321 303 296 284 247 242
258 255 253 252 252 251 250 249 253 247 241 238 238 243 246 238 233 224 230 228 233 240 241 239 215 235 246 260 297 277 278 308 289 314 306 306 325 339 322 318 301 279 291 269 263
259 256 253 252 251 250 249 247 245 245 240 243 244 225 236 227 228 225 229 229 235 236 242 240 210 200 248 249 264 298 273 286 311 315 291 302 298 301 267 301 261 286 284 297 208
257 254 252 251 251 251 250 246 241 242 241 242 242 232 239 229 232 232 236 231 232 233 237 240 228 226 258 260 275 298 264 289 287 287 282 302 309 317 322 301 272 246 267 293 262
255 253 252 250 249 247 243 243 242 240 241 234 228 231 233 229 226 232 239 233 235 237 236 226 213 238 284 250 238 284 317 274 284 275 286 301 316 322 319 233 162 186 166 253 229
256 252 249 247 246 240 238 239 236 235 239 248 232 232 235 226 235 231 230 229 223 227 231 219 203 230 252 249 278 274 277 284 284 281 289 317 326 343 283 226 192 195 94 26 298
262 255 250 245 239 234 235 233 230 224 231 254 246 244 226 224 230 231 232 232 227 227 228 226 198 193 242 291 267 254 255 282 272 276 282 289 298 322 264 251 182 150 121 46 304
258 255 250 245 236 233 232 228 221 206 149 285 285 251 235 226 226 231 235 223 221 228 232 234 215 194 202 223 251 265 240 269 306 283 297 296 291 319 171 272 255 183 213 162 295
259 249 247 245 237 234 230 221 191 173 169 206 257 278 221 234 223 229 242 240 230 226 231 231 219 184 223 242 253 272 281 262 267 287 299 284 302 336 113 174 217 142 291 292 317
261 254 246 239 238 235 228 195 192 211 190 172 194 243 261 231 243 232 235 236 227 231 226 224 212 180 246 225 228 213 267 276 266 289 283 278 300 333 173 168 239 176 29 3 310
259 256 252 244 238 234 216 196 201 217 220 193 203 207 188 218 282 292 246 232 239 240 232 216 218 195 238 260 214 293 262 275 286 297 299 305 291 302 350 263 259 163 163 293 223
270 263 251 247 242 234 214 207 212 226 229 224 222 222 231 181 210 245 288 250 247 275 251 221 216 218 218 222 283 289 238 273 282 276 259 273 282 296 333 234 209 222 225 208 127
266 263 254 255 244 236 223 218 223 232 236 235 224 219 222 204 201 206 227 258 234 247 259 250 227 231 221 197 239 263 281 288 305 253 273 279 278 315 313 278 243 224 224 232 261
262 260 250 254 248 242 239 235 230 227 237 242 231 222 213 213 206 198 209 213 233 225 231 231 229 234 237 204 206 230 253 276 297 303 277 275 288 301 296 285 203 199 208 224 260
262 262 268 258 255 252 244 234 238 241 242 230 232 225 229 225 220 206 201 209 227 238 227 232 231 225 229 226 222 215 224 244 279 282 291 295 274 274 288 281 178 196 182 246 226
264 266 262 257 251 246 246 252 251 240 239 243 231 229 224 222 224 212 202 214 214 224 232 236 242 237 222 221 216 211 216 222 259 284 275 297 286 269 258 289 217 217 196 256 251
259 258 257 256 256 252 247 244 240 241 242 243 241 233 225 227 223 218 216 219 225 231 227 233 241 239 232 225 229 215 209 213 222 227 267 275 279 275 269 150 158 237 186 237 234